Location: *
(41.7492°S, 135.4150°W)
Time: 22:20:29
(UTC+00:00)

Cosmos 2263 Rocket - Pass Details

Date: 20 September 2021
Orbit: 825 x 847 km, 71.0° (Epoch: 25 October)

Event Time Altitude Azimuth Distance (km) Brightness Sun altitude
Exits shadow 13:17:40 27° 254° (WSW) 1,558 3.1 -18.5°
Maximum altitude 13:18:43 29° 235° (SW) 1,503 3.2 -18.3°
Drops below altitude 10° 13:23:36 10° 175° (S) 2,474 4.9 -17.4°
Sets 13:26:25 0° 164° (SSE) 3,419 5.8 -16.9°
